Location: Blachownia
(50.7807°N, 18.9578°E)
Time: 06:52:06
(UTC+01:00)

ISS - Pass Details

Date: 28 January 2019
Orbit: 403 x 411 km, 51.6° (Epoch: 17 February)

Event Time Altitude Azimuth Distance (km) Brightness Sun altitude
Rises 19:07:46 0° 268° (W) 2,337 1.4 -25.0°
Reaches altitude 10° 19:09:51 10° 270° (W) 1,477 0.1 -25.4°
Enters shadow 19:11:38 29° 275° (W) 785 -1.8 -25.7°
